User: anonymous   Login
Location: Unspecified
(0.0000°N, 0.0000°E)
Time: 07:39:11
(UTC+00:00)
Language:

MERIDIAN 2 - Orbit

View from above orbital plane
View from above orbital plane
View from above satellite
View from above satellite

Ground track
Ground track

The orbit data is extracted from the following two-line orbital elements,

1 35008U 09029A   18267.01056836 +.00000070 +00000-0 +25743-3 0  9990
2 35008 063.9116 323.7769 7256640 250.5065 023.3089 02.24525462076486
Epoch (UTC): 24 September 2018 00:15:13
Eccentricity: 0.7256640
inclination: 63.9116°
perigee height: 380 km
apogee height: 36134 km
right ascension of ascending node: 323.7769°
argument of perigee: 250.5065°
revolutions per day: 2.24525462
mean anomaly at epoch: 23.3089°
orbit number at epoch: 7648

The dashed part of the orbit path shows where the satellite is in the earth's shadow,  

DLR